Location: Hope
(40.9110°N, 74.9680°W)
Time: 07:27:19
(UTC-05:00)

Envisat - Pass Details

Date: 30 January 2019
Orbit: 764 x 766 km, 98.2° (Epoch: 20 February)

Event Time Altitude Azimuth Distance (km) Brightness Sun altitude
Rises 20:10:13 0° 216° (SW) 3,220 6.6 -33.3°
Reaches altitude 10° 20:13:52 10° 244° (WSW) 2,300 6.1 -34.0°
Maximum altitude 20:16:09 13° 271° (W) 2,102 6.0 -34.4°
Drops below altitude 10° 20:18:26 10° 298° (WNW) 2,307 6.2 -34.9°
Sets 20:22:08 0° 326° (NW) 3,239 6.7 -35.5°
